Meteo Giornale » Osservazioni meteo Italia » Bergamo-Orio Al Serio

ore: 03:50 - Osservazioni Meteo Bergamo-Orio Al Serio
Lat. 45° 40' N Lon. 9° 42' E Alt. 238 metri s.l.m.

sereno Europe/Rome

4 °C

Sereno

Temp. 24 Ore

3 °C

13 °C

Nord

9.3 Km/h

Dew point 2 °C

Umidità 86 %

Visibilità  8 Km

Il sole sorge alle ore 07:25

Il sole tramonta alle ore 16:48

Data e Ora Cielo e Fenomeni T °C DP °C Um. % Pres. hPa Vis. km Vento km/h
Oggi h: 03:50 sereno Sereno 4 2 86 1014 8 N 9.3
Oggi h: 03:20 sereno Sereno 4 2 86 1014 8 N 9.3
Oggi h: 02:50 sereno Sereno 3 2 93 1015 8 N 7.4
Oggi h: 02:20 sereno Sereno 4 2 86 1015 8 N 11.1
Oggi h: 01:50 sereno Sereno 3 2 93 1015 8 N 11.1
Oggi h: 01:20 sereno Sereno 4 2 86 1015 8 N 9.3
Oggi h: 00:50 sereno Sereno 4 2 86 1016 8 N 11.1
Oggi h: 00:20 sereno Sereno 4 2 86 1016 8 N/NE 7.4
Ieri h: 23:50 sereno Sereno 4 2 86 1016 8 N 5.5
Ieri h: 23:20 sereno Sereno 5 3 86 1016 8 N/NE 11.1
Ieri h: 22:50 sereno Sereno 5 3 86 1016 8 N/NE 7.4
Ieri h: 22:20 sereno Sereno 5 3 86 1017 8 N 11.1
Ieri h: 21:50 sereno Sereno 5 3 86 1016 8 N 9.3
Ieri h: 21:20 sereno Sereno 5 3 86 1017 8 N 11.1
Ieri h: 20:50 sereno Sereno 6 3 81 1017 8 N 9.3
Ieri h: 20:20 sereno Sereno 6 3 81 1017 8 N 9.3
Ieri h: 19:50 sereno Sereno 6 4 86 1017 8 N 11.1
Ieri h: 19:20 sereno Sereno 6 4 86 1017 8 N 9.3
Ieri h: 18:50 sereno Sereno 7 4 81 1017 8 N 7.4
Ieri h: 18:20 sereno Sereno 8 5 81 1017 8 N 5.5
Ieri h: 17:20 sereno Sereno 9 5 75 1017 10 N 5.5
Ieri h: 16:50 sereno Sereno 10 5 71 1017 10 S 7.4
Ieri h: 16:20 sereno Sereno 11 5 66 1017 10 S/SO 7.4
Ieri h: 15:50 sereno Sereno 12 5 62 1017 10 S/SO 9.3
Ieri h: 15:20 sereno Sereno 12 5 62 1017 10 S/SO 9.3
Ieri h: 14:50 sereno Sereno 13 6 62 1017 10 S/SO 7.4
Ieri h: 14:20 sereno Sereno 13 5 58 1017 10 S/SO 7.4
Ieri h: 13:50 sereno Sereno 13 5 58 1017 10 S/SO 7.4
Ieri h: 13:20 sereno Sereno 13 5 58 1017 10 N 5.5
Ieri h: 12:50 sereno Sereno 12 5 62 1018 10 S/SO 7.4
Ieri h: 12:20 sereno Sereno 13 5 58 1018 10 SO 7.4
Ieri h: 11:50 sereno Sereno 12 5 62 1018 10 N 5.5
Ieri h: 11:20 sereno Sereno 12 5 62 1018 10 N 5.5
Ieri h: 10:50 sereno Sereno 11 5 66 1019 10 N 5.5
Ieri h: 10:20 sereno Sereno 11 4 61 1019 10 N 3.7
Ieri h: 09:50 sereno Sereno 9 4 70 1019 10 N 3.7
Ieri h: 09:20 sereno Sereno 8 5 81 1018 10 N 3.7
Ieri h: 08:50 sereno Sereno 6 4 86 1019 10 N 13
Ieri h: 08:20 sereno Sereno 5 3 86 1018 10 N 9.3
Ieri h: 07:50 sereno Sereno 5 2 80 1018 10 N 9.3
Ieri h: 07:20 sereno Sereno 4 2 86 1018 10 N 7.4
Ieri h: 06:50 sereno Sereno 4 2 86 1018 10 N/NE 9.3
Ieri h: 06:20 sereno Sereno 4 2 86 1018 10 N/NE 9.3
Ieri h: 05:50 sereno Sereno 4 2 86 1018 10 N 7.4
Ieri h: 05:20 sereno Sereno 5 2 80 1018 10 N 9.3
Ieri h: 04:50 sereno Sereno 5 2 80 1018 10 N 11.1
Ieri h: 04:20 sereno Sereno 5 2 80 1018 10 N 11.1
Ieri h: 03:50 sereno Sereno 5 3 86 1018 10 N 11.1